DW6162 Weather Reports


Display with metric or nautical units.
time (UTC)temp
F
wind
direction
speed
MPH
gust
MPH
rain 1hr
in
rain 24hr
in
rain mn
in
humidity
%
barometer
mb
20260504021845 44 0 0.0 0.0 0.00 0.00 0.00 63 1011.6
20260504021503 43 161 0.0 1.0 0.00 0.00 0.00 62 1013.6
20260504020945 44 159 0.0 1.0 0.00 0.00 0.00 62 1011.6
20260504020112 44 160 0.0 1.0 0.00 0.00 0.00 61 1013.6
20260504020044 45 160 0.0 1.0 0.00 0.00 0.00 61 1011.6
20260504015144 45 160 0.0 1.0 0.00 0.00 0.00 60 1011.5
20260504014502 45 160 0.0 1.0 0.00 0.00 0.00 59 1013.4
20260504013345 46 165 0.0 1.0 0.00 0.00 0.00 59 1011.4
20260504013103 45 161 0.0 2.0 0.00 0.00 0.00 58 1013.4
20260504012445 46 146 0.0 2.0 0.00 0.00 0.00 58 1011.4
20260504011545 46 112 0.0 1.0 0.00 0.00 0.00 58 1011.3
20260504011503 46 124 0.0 2.0 0.00 0.00 0.00 58 1013.3
20260504010645 46 94 0.0 1.0 0.00 0.00 0.00 57 1011.3
20260504010105 46 94 0.0 2.0 0.00 0.00 0.00 56 1013.3
20260504005744 47 105 1.0 3.0 0.00 0.00 0.00 56 1011.3
20260504004844 47 99 1.0 3.0 0.00 0.00 0.00 55 1011.2
20260504004505 47 86 0.0 2.0 0.00 0.00 0.00 55 1013.3
20260504003945 48 121 1.0 3.0 0.00 0.00 0.00 54 1011.2
20260504003056 47 91 0.0 2.0 0.00 0.00 0.00 54 1013.1
20260504003044 48 119 1.0 2.0 0.00 0.00 0.00 54 1011.1
20260504001504 48 81 0.0 4.0 0.00 0.00 0.00 53 1013.1
20260504001245 49 117 1.0 5.0 0.00 0.00 0.00 51 1011.0
20260504000346 49 128 2.0 9.0 0.00 0.00 0.00 51 1011.0
20260504000105 48 214 1.0 9.0 0.00 0.00 0.00 51 1013.0
20260503235444 49 123 1.0 6.0 0.00 0.00 0.00 51 1010.8
20260503234504 49 131 0.0 3.0 0.00 0.00 0.00 50 1013.0
20260503233644 50 171 3.0 16.0 0.00 0.00 0.00 47 1011.0
20260503233103 50 344 4.0 17.0 0.00 0.00 0.00 46 1012.9
20260503232744 51 129 3.0 16.0 0.00 0.00 0.00 47 1010.8
20260503231845 51 16 2.0 8.0 0.00 0.00 0.00 46 1011.0
20260503231502 51 25 0.0 8.0 0.00 0.00 0.00 45 1013.0
20260503230945 52 337 3.0 10.0 0.00 0.00 0.00 45 1010.9
20260503230044 52 84 2.0 6.0 0.00 0.00 0.00 45 1010.8
20260503225145 52 59 2.0 9.0 0.00 0.00 0.00 44 1010.7
20260503224503 51 117 3.0 8.0 0.00 0.00 0.00 44 1012.8
20260503224244 52 47 3.0 8.0 0.00 0.00 0.00 44 1010.7
20260503223344 52 356 2.0 8.0 0.00 0.00 0.00 44 1010.7
20260503223103 52 326 1.0 7.0 0.00 0.00 0.00 44 1012.8
20260503222445 52 356 3.0 8.0 0.00 0.00 0.00 44 1010.7
20260503221545 52 10 3.0 11.0 0.00 0.00 0.00 44 1010.6
20260503221502 52 299 4.0 10.0 0.00 0.00 0.00 44 1012.8
20260503220644 52 3 3.0 11.0 0.00 0.00 0.00 44 1010.7
20260503215744 52 353 4.0 11.0 0.00 0.00 0.00 45 1010.7
20260503214844 52 29 3.0 11.0 0.00 0.00 0.00 45 1010.7
20260503214507 51 27 3.0 11.0 0.00 0.00 0.00 45 1012.9
20260503213944 52 255 3.0 11.0 0.00 0.00 0.00 44 1010.6
20260503213103 52 135 1.0 6.0 0.00 0.00 0.00 46 1012.8
20260503213044 52 95 2.0 6.0 0.00 0.00 0.00 45 1010.6
20260503212144 51 330 3.0 11.0 0.00 0.00 0.00 46 1010.5
20260503211503 51 8 2.0 11.0 0.00 0.00 0.00 46 1012.7
20260503210344 52 359 3.0 10.0 0.00 0.00 0.00 45 1010.5
20260503210105 51 146 2.0 7.0 0.00 0.00 0.00 45 1012.9
20260503205444 52 347 4.0 12.0 0.00 0.00 0.00 45 1010.6
20260503204544 52 325 4.0 11.0 0.00 0.00 0.00 45 1010.7
20260503203644 52 344 5.0 16.0 0.00 0.00 0.00 46 1010.7
20260503203102 52 40 4.0 10.0 0.00 0.00 0.00 46 1013.0
20260503202744 51 341 3.0 10.0 0.00 0.00 0.00 45 1010.8
20260503201844 51 58 3.0 11.0 0.00 0.00 0.00 44 1010.7
20260503201502 51 332 2.0 11.0 0.00 0.00 0.00 45 1013.0
20260503200944 51 348 4.0 10.0 0.00 0.00 0.00 45 1010.7
20260503200044 52 32 3.0 10.0 0.00 0.00 0.00 43 1011.1
20260503195144 52 346 3.0 12.0 0.00 0.00 0.00 44 1011.0
20260503194503 51 99 2.0 11.0 0.00 0.00 0.00 43 1013.4
20260503193344 52 326 5.0 12.0 0.00 0.00 0.00 43 1011.2
20260503193104 52 248 5.0 12.0 0.00 0.00 0.00 44 1013.6
20260503192444 52 330 4.0 12.0 0.00 0.00 0.00 45 1011.2
20260503191544 51 340 5.0 14.0 0.00 0.00 0.00 45 1011.3
20260503191503 51 309 5.0 14.0 0.00 0.00 0.00 46 1013.7
20260503190644 52 351 4.0 16.0 0.00 0.00 0.00 47 1011.5
20260503190105 51 25 6.0 16.0 0.00 0.00 0.00 46 1013.9
20260503185744 51 329 4.0 11.0 0.00 0.00 0.00 46 1011.5
20260503184844 50 333 5.0 11.0 0.00 0.00 0.00 52 1011.8
20260503184503 49 283 3.0 10.0 0.00 0.00 0.00 48 1014.2
20260503183944 49 336 4.0 10.0 0.00 0.00 0.00 50 1011.9
20260503183107 49 343 4.0 8.0 0.00 0.00 0.00 49 1014.4
20260503183044 49 320 4.0 9.0 0.00 0.00 0.00 49 1012.0
20260503182145 50 319 3.0 8.0 0.00 0.00 0.00 48 1011.9
20260503181506 50 343 4.0 12.0 0.00 0.00 0.00 47 1014.2
20260503181244 50 331 4.0 12.0 0.00 0.00 0.00 47 1012.0
20260503180346 52 346 4.0 11.0 0.00 0.00 0.00 45 1011.7
20260503180109 51 314 4.0 11.0 0.00 0.00 0.00 45 1014.2
20260503175444 52 337 4.0 10.0 0.00 0.00 0.00 47 1011.8
20260503174545 50 352 5.0 10.0 0.00 0.00 0.00 50 1012.0
20260503174503 50 330 5.0 10.0 0.00 0.00 0.00 47 1014.4
20260503173644 50 321 4.0 9.0 0.00 0.00 0.00 47 1012.1
20260503173111 49 333 4.0 10.0 0.00 0.00 0.00 50 1014.6
20260503172744 50 335 4.0 11.0 0.00 0.00 0.00 45 1012.2
20260503171844 50 327 5.0 12.0 0.00 0.00 0.00 46 1012.2
20260503171502 50 354 4.0 10.0 0.00 0.00 0.00 49 1014.7
20260503150344 45 357 4.0 11.0 0.00 0.00 0.00 54 1013.1
20260503130644 39 343 3.0 8.0 0.00 0.00 0.00 70 1013.4
20260503130104 38 95 2.0 4.0 0.00 0.00 0.00 70 1016.1
20260503090344 31 331 2.0 4.0 0.00 0.00 0.00 88 1012.5
20260503081603 32 312 2.0 6.0 0.00 0.00 0.00 86 1015.0
20260503072444 32 321 2.0 6.0 0.00 0.00 0.00 85 1012.1
20260503071615 32 325 1.0 4.0 0.00 0.00 0.00 85 1014.8
20260503071544 32 305 2.0 4.0 0.00 0.00 0.00 85 1012.1
20260503070644 32 324 2.0 7.0 0.00 0.00 0.00 85 1012.1
20260503054603 31 231 1.0 4.0 0.00 0.00 0.00 83 1015.1
20260503054544 32 300 1.0 4.0 0.00 0.00 0.00 83 1012.4
20260503053646 32 278 0.0 2.0 0.00 0.00 0.00 83 1012.4
20260503053004 31 300 0.0 1.0 0.00 0.00 0.00 82 1015.2
20260503052743 32 299 0.0 1.0 0.00 0.00 0.00 82 1012.5
20260503051844 32 300 0.0 2.0 0.00 0.00 0.00 81 1012.5
20260503051603 32 299 0.0 2.0 0.00 0.00 0.00 81 1015.3
20260503050944 32 288 0.0 2.0 0.00 0.00 0.00 81 1012.6
20260503050044 32 296 1.0 4.0 0.00 0.00 0.00 80 1012.7
20260503050010 32 280 0.0 4.0 0.00 0.00 0.00 80 1015.4
20260503045144 33 318 1.0 4.0 0.00 0.00 0.00 80 1012.7
20260503044243 33 297 1.0 4.0 0.00 0.00 0.00 78 1012.6
20260503043343 33 327 1.0 3.0 0.00 0.00 0.00 78 1012.7
20260503043004 33 326 1.0 3.0 0.00 0.00 0.00 78 1015.4
20260503041603 33 316 1.0 4.0 0.00 0.00 0.00 77 1015.6
20260503041544 34 321 2.0 3.0 0.00 0.00 0.00 77 1012.8
20260503040643 34 324 2.0 4.0 0.00 0.00 0.00 76 1012.9
20260503040005 34 328 1.0 4.0 0.00 0.00 0.00 77 1015.7
20260503035744 34 317 2.0 4.0 0.00 0.00 0.00 77 1013.0
20260503034844 34 320 1.0 3.0 0.00 0.00 0.00 76 1013.0
20260503034603 34 321 0.0 3.0 0.00 0.00 0.00 76 1015.7
20260503033944 35 305 1.0 5.0 0.00 0.00 0.00 76 1012.9
20260503033044 35 331 2.0 5.0 0.00 0.00 0.00 75 1013.1
20260503033007 34 310 1.0 5.0 0.00 0.00 0.00 75 1015.6
20260503032144 35 322 3.0 8.0 0.00 0.00 0.00 75 1013.1
20260503031608 35 316 2.0 6.0 0.00 0.00 0.00 74 1015.6
20260503031244 35 318 2.0 5.0 0.00 0.01 0.00 74 1013.0
20260503030005 35 1 1.0 6.0 0.00 0.00 0.00 74 1015.6
20260503025444 36 329 4.0 10.0 0.00 0.01 0.00 74 1013.1
20260503024603 35 333 3.0 10.0 0.00 0.01 0.00 73 1015.7
20260503023004 36 336 1.0 5.0 0.00 0.01 0.00 72 1015.8
20260503022744 36 320 3.0 5.0 0.00 0.01 0.00 72 1013.2